Rochester, MN

5:07 PM CDT on August 23, 2017 (GMT -0500)
Rochester International

Weather History for KRST - January, 2014

Change the Weather History Date:

Monday, January 6, 2014

  Actual Average Record
Temperature  
Mean Temperature -18 °F 16 °F  
Max Temperature -13 °F 23 °F 46 °F (1933)
Min Temperature -23 °F 8 °F -28 °F (1912)
Degree Days  
Heating Degree Days 83 49  
Month to date heating degree days 405 294  
Since 1 July heating degree days 3699 3372  
Cooling Degree Days 0 0  
Month to date cooling degree days 0 0  
Year to date cooling degree days 0 0  
Moisture  
Dew Point -26 °F    
Average Humidity 63    
Maximum Humidity 70    
Minimum Humidity 55    
Precipitation  
Precipitation 0.00 in 0.02 in 1.50 in (1888)
Month to date precipitation 0.02 0.16  
Year to date precipitation 0.02 0.16  
Snow  
Snow 0.00 in 0.30 in 5.60 in (1980)
Month to date snowfall T 2.0  
Since 1 July snowfall 14.4 21.4  
Snow Depth 5.00 in    
Sea Level Pressure  
Sea Level Pressure 30.26 in    
Wind  
Wind Speed 19 mph (WNW)    
Max Wind Speed 26 mph    
Max Gust Speed 31 mph    
Visibility 7 miles    
Events Snow    
T = Trace of Precipitation, MM = Missing Value Source: NWS Daily Summary

Daily Weather History Graph

Daily Weather History Graph

Search for Another Location

Airport or City:

Trip Planner

Search our weather history database for the weather conditions in past years. The results will help you decide how hot, cold, wet, or windy it might be!

Date:

Astronomy

Jan. 06, 2014 Rise Set
Actual Time 7:44 AM CST 4:47 PM CST
Civil Twilight 7:11 AM CST 5:20 PM CST
Nautical Twilight 6:35 AM CST 5:56 PM CST
Astronomical Twilight 6:00 AM CST 6:31 PM CST
Moon 10:46 AM CST (1/6) 11:36 PM CST (1/6)
Length of Visible Light 10h 08m
Length of Day
9h 03m
Waxing Crescent, 35% of the Moon is Illuminated
Jan 6
Waxing Crescent
Jan 7
First Quarter
Jan 15
Full
Jan 23
Last Quarter
Jan 30
New

Hourly Weather History & Observations

Time (CST) Temp. Windchill Dew Point Humidity Pressure Visibility Wind Dir Wind Speed Gust Speed Precip Events Conditions
12:54 AM -20.0 °F -49.9 °F -29.0 °F 63% 30.33 in 10.0 mi NW 23.0 mph 31.1 mph N/A Snow Blowing Snow
1:18 AM -20.0 °F -47.3 °F -29.0 °F 63% 30.19 in 8.0 mi NW 18.4 mph - N/A Snow Blowing Snow
1:39 AM -20.9 °F -51.1 °F -29.9 °F 63% 30.19 in 9.0 mi NW 23.0 mph - N/A Snow Blowing Snow
1:54 AM -20.9 °F -47.7 °F -29.0 °F 66% 30.33 in 8.0 mi NW 17.3 mph 27.6 mph N/A Snow Blowing Snow
2:01 AM -20.9 °F -48.5 °F -29.0 °F 66% 30.20 in 7.0 mi NW 18.4 mph - N/A Snow Blowing Snow
2:34 AM -20.9 °F -47.7 °F -29.9 °F 63% 30.20 in 10.0 mi NW 17.3 mph - N/A Snow Blowing Snow
2:54 AM -20.9 °F -49.2 °F -31.0 °F 60% 30.34 in 8.0 mi NW 19.6 mph 28.8 mph N/A Snow Blowing Snow
3:54 AM -22.0 °F -50.6 °F -31.0 °F 63% 30.34 in 4.0 mi NW 19.6 mph - N/A Snow Blowing Snow
4:54 AM -22.0 °F -51.3 °F -31.0 °F 63% 30.34 in 10.0 mi NW 20.7 mph 26.5 mph N/A   Mostly Cloudy
5:02 AM -22.0 °F -51.3 °F -32.1 °F 60% 30.20 in 10.0 mi NW 20.7 mph - N/A   Scattered Clouds
5:54 AM -23.1 °F -52.0 °F -31.0 °F 67% 30.34 in 9.0 mi WNW 19.6 mph - N/A   Clear
6:54 AM -23.1 °F -52.7 °F -32.1 °F 63% 30.34 in 10.0 mi NW 20.7 mph - N/A   Clear
7:54 AM -23.1 °F -52.0 °F -31.0 °F 67% 30.35 in 8.0 mi WNW 19.6 mph - N/A   Clear
8:20 AM -22.0 °F -49.9 °F -31.0 °F 63% 30.20 in 5.0 mi WNW 18.4 mph - N/A   Haze
8:31 AM -22.0 °F -50.6 °F -31.0 °F 63% 30.20 in 6.0 mi WNW 19.6 mph - N/A   Haze
8:46 AM -22.0 °F -50.6 °F -31.0 °F 63% 30.20 in 8.0 mi WNW 19.6 mph 27.6 mph N/A   Overcast
8:54 AM -22.0 °F -50.6 °F -29.9 °F 67% 30.36 in 7.0 mi WNW 19.6 mph - N/A   Overcast
9:06 AM -20.9 °F -49.2 °F -29.9 °F 63% 30.21 in 7.0 mi WNW 19.6 mph - N/A   Clear
9:54 AM -20.0 °F -47.3 °F -29.0 °F 63% 30.36 in 7.0 mi WNW 18.4 mph - N/A   Clear
10:01 AM -18.9 °F -45.2 °F -29.0 °F 60% 30.21 in 6.0 mi WNW 17.3 mph - N/A   Haze
10:54 AM -17.0 °F -42.6 °F -27.0 °F 60% 30.35 in 6.0 mi WNW 17.3 mph - N/A   Haze
11:30 AM -16.1 °F -44.6 °F -26.0 °F 61% 30.18 in 5.0 mi WNW 23.0 mph - N/A   Haze
11:54 AM -16.1 °F -42.8 °F -25.1 °F 64% 30.32 in 4.0 mi WNW 19.6 mph - N/A Snow Blowing Snow
12:43 PM -15.0 °F -43.7 °F -24.0 °F 64% 30.16 in 5.0 mi WNW 24.2 mph - N/A Snow Blowing Snow
12:54 PM -14.1 °F -42.5 °F -24.0 °F 61% 30.30 in 4.0 mi WNW 24.2 mph 29.9 mph N/A Snow Blowing Snow
1:26 PM -14.1 °F -42.0 °F -23.1 °F 64% 30.15 in 2.5 mi WNW 23.0 mph - N/A Snow Blowing Snow
1:33 PM -14.1 °F -40.8 °F -24.0 °F 61% 30.15 in 5.0 mi WNW 20.7 mph 31.1 mph N/A Snow Blowing Snow
1:54 PM -14.1 °F -40.2 °F -23.1 °F 64% 30.30 in 4.0 mi WNW 19.6 mph - N/A Snow Blowing Snow
2:12 PM -14.1 °F -41.4 °F -23.1 °F 64% 30.15 in 2.5 mi West 21.9 mph 29.9 mph N/A Snow Blowing Snow
2:31 PM -14.1 °F -42.0 °F -23.1 °F 64% 30.15 in 2.5 mi West 23.0 mph - N/A Snow Blowing Snow
2:54 PM -14.1 °F -42.0 °F -23.1 °F 64% 30.31 in 3.0 mi West 23.0 mph - N/A Snow Blowing Snow
3:54 PM -14.1 °F -41.4 °F -24.0 °F 61% 30.32 in 7.0 mi WNW 21.9 mph 28.8 mph N/A   Mostly Cloudy
4:11 PM -14.1 °F -39.6 °F -23.1 °F 64% 30.17 in 5.0 mi WNW 18.4 mph - N/A   Haze
4:39 PM -15.0 °F -39.3 °F -24.0 °F 64% 30.17 in 10.0 mi West 16.1 mph - N/A   Scattered Clouds
4:54 PM -15.0 °F -40.7 °F -24.0 °F 64% 30.32 in 9.0 mi West 18.4 mph - N/A   Mostly Cloudy
5:06 PM -14.1 °F -38.2 °F -23.1 °F 64% 30.16 in 5.0 mi West 16.1 mph - N/A   Haze
5:52 PM -14.8 °F -41.8 °F -23.8 °F 64% 30.16 in 6.0 mi West 20.7 mph - N/A   Haze
5:54 PM -15.0 °F -42.6 °F -23.1 °F 67% 30.31 in 6.0 mi West 21.9 mph - N/A   Haze
6:01 PM -15.0 °F -41.4 °F -23.1 °F 67% 30.16 in 7.0 mi West 19.6 mph - N/A   Mostly Cloudy
6:08 PM -15.0 °F -42.0 °F -23.1 °F 67% 30.16 in 9.0 mi West 20.7 mph 26.5 mph N/A   Scattered Clouds
6:54 PM -14.1 °F -40.2 °F -23.1 °F 64% 30.32 in 10.0 mi West 19.6 mph - N/A   Mostly Cloudy
7:54 PM -14.1 °F -38.2 °F -22.0 °F 68% 30.31 in 10.0 mi West 16.1 mph 24.2 mph N/A   Overcast
8:54 PM -15.0 °F -37.7 °F -22.0 °F 71% 30.31 in 10.0 mi WNW 13.8 mph - N/A   Partly Cloudy
9:54 PM -15.0 °F -36.8 °F -22.0 °F 71% 30.30 in 10.0 mi WNW 12.7 mph - N/A   Clear
10:54 PM -15.0 °F -38.5 °F -22.0 °F 71% 30.28 in 10.0 mi West 15.0 mph - N/A   Clear
11:54 PM -15.0 °F -37.7 °F -22.0 °F 71% 30.27 in 10.0 mi West 13.8 mph - N/A   Clear